Content
SEND FEEDBACK

Daily
Averages
Monthly
Summary
Philippines

OLONGAPO, PHILIPPINES


Home > Asia > Philippines
Elevation: 55 feet     Latitude: 14 48N     Longitude: 120 16E

WEATHER
 
SELECT A DAY
Number of Records: 140,902;   Date Range: 7/31/96 - 12/20/14
 
SHARE

PRINT THIS DATA

[ ← Previous Day ]
WEATHER ALMANAC - OCTOBER 29, 2013
[ Next Day → ]
[ °C ]   °F
Weather ElementAverageHighLow
Temperature82.8 °F91.4 °F (1:00 pm)73.4 °F (5:00 am)
Dewpoint73.1 °F77 °F (4:00 pm)69.8 °F (6:00 am)
Humidity71.7 %94 % (2:00 am)49 % (11:00 am)
Barometer29.88 in29.93 in (8:00 am)29.83 in (2:00 pm)
Wind Speed6.5 mph13.8 mph (10:00 am)
Weather ElementAverage
Visibility7.4 mi
Wind DirectionENE (55 °)

Weather ElementTotal
Precipitation---
Cooling Degree Days17.4 (Base 65)
Growing Degree Days32.4 (Base 50)
Averaged from 22 records on October 29, 2013
WEATHER CONDITIONS BREAKOUT
WIND DIRECTION BREAKOUT
WEATHER BY HOUR - OCTOBER 29, 2013
[ °C ]   °F
Local TimeTemperatureDewpointHumidityBarometerVisibilityWind DirectionWind SpeedGust SpeedPrecipitationEventsConditions
2:00 AM76.0 °F72.0 °F85 %29.89 in7.0 miEast (90°)4.5 mphHaze
2:00 AM75.2 °F73.4 °F94 %29.89 in6.2 miEast (90°)4.6 mphPartly Cloudy
5:00 AM73.4 °F71.6 °F94 %29.86 in6.2 miEast (90°)4.6 mphPartly Cloudy
6:00 AM73.4 °F69.8 °F88 %29.89 in6.2 miEast (90°)4.6 mphScattered Clouds
7:00 AM75.2 °F69.8 °F83 %29.92 in6.2 miVariable2.3 mphPartly Cloudy
8:00 AM78.8 °F71.6 °F78 %29.92 in6.2 miEast (80°)4.6 mphPartly Cloudy
8:00 AM79.0 °F72.0 °F73 %29.93 in12.0 miEast (80°)4.5 mphHaze
9:00 AM82.4 °F73.4 °F74 %29.92 in6.2 miEast (80°)8.1 mphScattered Clouds
10:00 AM86.0 °F75.2 °F70 %29.92 in6.2 miEast (90°)13.8 mphMostly Cloudy
11:00 AM88.0 °F71.0 °F49 %29.91 in11.0 miENE (60°)11.2 mphHaze
11:00 AM87.8 °F71.6 °F58 %29.89 in6.2 miENE (60°)13.8 mphMostly Cloudy
12:00 PM87.8 °F73.4 °F62 %29.86 in6.2 miEast (80°)11.5 mphMostly Cloudy
1:00 PM91.4 °F71.6 °F52 %29.86 in6.2 miEast (80°)11.5 mphMostly Cloudy
2:00 PM88.0 °F73.0 °F54 %29.84 in11.0 miEast (90°)6.7 mphHaze
2:00 PM87.8 °F73.4 °F62 %29.83 in6.2 miEast (90°)6.9 mphMostly Cloudy
3:00 PM86.0 °F75.2 °F70 %29.83 in6.2 miVariable3.5 mphMostly Cloudy
4:00 PM87.8 °F77.0 °F70 %29.83 in6.2 miVariable3.5 mphMostly Cloudy
5:00 PM86.0 °F75.2 °F70 %29.83 in6.2 miVariable3.5 mphMostly Cloudy
5:00 PM86.0 °F75.0 °F62 %29.83 in11.0 miNorth6.7 mphHaze
8:00 PM82.0 °F74.0 °F72 %29.87 in11.0 miNorth4.5 mphHaze
8:00 PM82.4 °F75.2 °F79 %29.86 in6.2 miVariable3.5 mphMostly Cloudy
11:00 PM80.6 °F73.4 °F79 %29.89 in6.2 miENE (60°)4.6 mphMostly Cloudy
Hourly data recorded from RPLB, located miles away from Olongapo, Philippines







STORIES FROM OUR PARTNERS